Location: Newark
(30.0333°N, 31.2167°E)
Time: 02:25:40
(UTC+00:00)

SR - All Passes

Search period start: 27 January 2020 00:00
Search period end: 06 February 2020 00:00
Orbit: 574 x 882 km, 66.7° (Epoch: 26 January)

Date Brightness Start Highest point End Pass type
(mag) Time Alt. Az. Time Alt. Az. Time Alt. Az.
27 Jan - 04:35:23 10° N 04:40:22 38° ENE 04:44:56 10° SE daylight
27 Jan - 06:18:31 10° WNW 06:22:00 18° WSW 06:25:18 10° SSW daylight
27 Jan - 18:57:36 10° SSW 19:03:19 90° ESE 19:09:17 10° NNE night (unlit)
27 Jan - 20:43:48 10° WNW 20:46:11 12° NW 20:48:35 10° NNW night (unlit)
28 Jan - 03:46:39 10° N 03:50:22 19° NE 03:53:52 10° E visible
28 Jan - 05:27:44 10° NW 05:32:41 43° WSW 05:37:12 10° S daylight
28 Jan - 18:08:26 10° S 18:13:46 43° ESE 18:19:19 10° NE visible
28 Jan - 19:51:23 10° WSW 19:56:01 24° NW 20:00:45 10° N night (unlit)
29 Jan - 04:37:50 10° NNW 04:43:09 81° ENE 04:47:58 10° SSE daylight
29 Jan - 17:20:22 10° SSE 17:24:24 20° ESE 17:28:34 10° ENE visible
29 Jan - 19:00:34 10° SW 19:06:05 47° WNW 19:11:48 10° NNE visible
30 Jan - 03:48:29 10° N 03:53:22 36° ENE 03:57:51 10° SE visible
30 Jan - 05:31:24 10° WNW 05:35:03 20° WSW 05:38:30 10° SSW daylight
30 Jan - 18:10:38 10° SSW 18:16:22 85° ESE 18:22:20 10° NNE visible
30 Jan - 19:56:27 10° WNW 19:59:10 13° NW 20:01:55 10° NNW night (unlit)
31 Jan - 02:59:51 10° NNE 03:03:21 17° NE 03:06:39 10° E visible
31 Jan - 04:40:44 10° NW 04:45:44 46° WSW 04:50:17 10° S daylight
31 Jan - 17:21:33 10° S 17:26:50 40° ESE 17:32:18 10° NE visible
31 Jan - 19:04:16 10° WSW 19:09:01 26° WNW 19:13:55 10° N visible
01 Feb - 03:50:53 10° NNW 03:56:11 75° ENE 04:00:57 10° SSE visible
01 Feb - 16:33:37 10° SSE 16:37:29 19° ESE 16:41:26 10° ENE visible
01 Feb - 18:13:32 10° SW 18:19:06 51° WNW 18:24:54 10° NNE visible
02 Feb - 03:01:36 10° N 03:06:22 33° ENE 03:10:45 10° ESE visible
02 Feb - 04:44:19 10° WNW 04:48:07 21° WSW 04:51:40 10° SSW daylight
02 Feb - 17:23:40 10° SSW 17:29:24 80° ESE 17:35:22 10° NNE visible
02 Feb - 19:09:08 10° W 19:12:09 14° NW 19:15:13 10° NNW visible
03 Feb - 02:13:05 10° NNE 02:16:19 16° NE 02:19:24 10° E visible
03 Feb - 03:53:44 10° NW 03:58:46 50° WSW 04:03:20 10° S visible
03 Feb - 16:34:40 10° S 16:39:54 37° ESE 16:45:18 10° NE visible
03 Feb - 18:17:09 10° WSW 18:22:02 27° WNW 18:27:02 10° N visible
04 Feb - 03:03:57 10° NNW 03:09:11 69° ENE 03:13:55 10° SSE visible
04 Feb - 15:46:53 10° SE 15:50:33 18° ESE 15:54:18 10° ENE daylight
04 Feb - 17:26:30 10° SW 17:32:08 54° WNW 17:37:58 10° NNE visible
05 Feb - 02:14:43 10° N 02:19:22 31° ENE 02:23:38 10° ESE visible
05 Feb - 03:57:13 10° NW 04:01:09 23° WSW 04:04:50 10° SSW visible
05 Feb - 16:36:43 10° SSW 16:42:28 75° ESE 16:48:23 10° NNE visible
05 Feb - 18:21:51 10° W 18:25:08 15° NW 18:28:27 10° NNW visible
